Сумароково

Россия / Красноярский край     61°39′29″N   89°45′06″E
темп.,
°C
ветер,
м/с
пор.,
м/с
влажн.,
%
обл.,
%
осадки,
мм/ч
давл.,
гПа
погр.,
м
6 марта, сб
сб601:00−5ю31096100 0.6 1001622
04:00−6ю3995100 0.4 1001511
07:00−7ю2996100 0.7 1002388
10:00−6ююз51091100 0.3 1003680
13:00−5ююз4789100 0.4 1004753
16:00−5ю3688100 0.2 1003818
19:00−8вюв2595100 0.3 1001132
22:00−6юв3896100 0.8 998468
7 марта, вс
вс701:00−7ююв2896100 1.2 997381
04:00−9ююв229799 0.2 99561
07:00−11всв1198100 0.3 99521
10:00−8з119699 0.0 996104
13:00−5юз2393100 0.2 998389
16:00−4з4792100 0.9 1001712
19:00−7з41092100 1.3 1004761
22:00−10зюз31093100 0.1 1007527
8 марта, пн
пн801:00−10з41093100 0.5 1010599
04:00−13зюз3795100 0.1 1014278
07:00−19юз129980 0.1 101720
10:00−16ююв239680 0.0 1017190
13:00−12ююв389390 0.1 1014480
16:00−8юв51188100 0.1 10071065
19:00−8юв51294100 2.9 10011168
22:00−6ююв51394100 2.8 9941093
9 марта, вт
вт901:00−3юз71395100 4.9 9911160
04:00−11юз6149099 0.3 9931187
07:00−10зюз71590100 0.7 9971349
10:00−12зюз71387100 0.3 10021068
13:00−11зюз61186100 0.4 1007957
16:00−11зюз51084100 0.1 10111088
19:00−13юз3991100 0.2 1012675
22:00−13ююз289698 0.1 1012343
10 марта, ср
ср1001:00−13ю289699 0.2 1010332
04:00−12ююв2996100 0.4 1006478
07:00−11ю31095100 1.0 1003701
10:00−9ююз4994100 0.6 1002835
13:00−8зюз5884100 1.3 10041208
16:00−7зюз4887100 0.2 10061143
19:00−10юз2894100 0.4 1008313
22:00−11ююз3896100 0.1 1009281